This demonstration page uses our WeatherBlox Daily Observations layout. Learn more.

Left ArrowRight Arrow

Hourly Observations for August 28, 2018

Temp ( °F °C ) Dew Point ( °F °C ) Humidity (%) Winds ( mph kmh ) Pressure ( in mb ) Visibility ( mi km ) Precip ( " mm )
12:53 am 00:53 Clear 82 27.8 69 20.6 65 65 S 21 33 29.75 1007 10 16 0.00 0.00
1:53 am 01:53 Mostly Clear 81 27.2 69 20.6 67 67 S 18 30 29.74 1007 10 16 0.00 0.00
2:53 am 02:53 Mostly Clear 80 26.7 69 20.6 69 69 S 17 28 29.74 1007 10 16 0.00 0.00
3:53 am 03:53 Mostly Clear 79 26.1 68 20 69 69 S 17 28 29.74 1007 10 16 0.00 0.00
4:53 am 04:53 Partly Cloudy 79 26.1 67 19.4 67 67 S 20 31 29.73 1007 10 16 0.00 0.00
5:53 am 05:53 Mostly Cloudy 78 25.6 68 20 71 71 S 18 30 29.73 1007 10 16 0.00 0.00
6:53 am 06:53 Mostly Cloudy 78 25.6 67 19.4 69 69 S 21 33 29.74 1007 10 16 0.00 0.03
7:53 am 07:53 Mostly Cloudy 77 25 68 20 74 74 S 16 26 29.75 1008 10 16 0.00 0.00
8:53 am 08:53 Mostly Cloudy 79 26.1 69 20.6 72 72 S 18 30 29.76 1008 10 16 0.00 0.00
9:53 am 09:53 Mostly Cloudy 83 28.3 70 21.1 65 65 S 23 37 29.76 1008 10 16 0.00 0.00
10:53 am 10:53 Mostly Cloudy 86 30 70 21.1 59 59 S 24 39 29.76 1008 10 16 0.00 0.00
11:53 am 11:53 Mostly Cloudy 88 31.1 70 21.1 55 55 S 20 31 29.78 1008 10 16 0.00 0.00
12:47 pm 12:47 Mostly Cloudy with Thunderstorms 88 31 70 21 55 55 SSW 23 37 29.74 1007 10 16 0.00 0.00
12:53 pm 12:53 Mostly Cloudy with Thunderstorms 88 31.1 69 20.6 54 54 S 24 39 29.78 1008 10 16 0.00 0.00
1:18 pm 13:18 Mostly Cloudy 88 31.1 70 21.1 55 55 S 18 30 29.74 1007 10 16 0.00 0.00
1:53 pm 13:53 Mostly Cloudy 88 31.1 72 22.2 59 59 S 18 30 29.77 1008 10 16 0.00 0.03
2:24 pm 14:24 Windy with Storms Likely 89 31.7 70 21.1 53 53 S 20 31 29.74 1007 10 16 0.00 0.03
2:53 pm 14:53 Mostly Cloudy with Thunderstorms 83 28.3 74 23.3 74 74 WSW 9 15 29.76 1008 8 13 0.02 0.51
3:20 pm 15:20 Partly Cloudy 91 32.8 74 23.3 57 57 SSW 17 28 29.68 1005 10 16 0.00 0.03
3:53 pm 15:53 Partly Cloudy 95 35 71 21.7 46 46 SSW 21 33 29.75 1007 10 16 0.00 0.03
4:53 pm 16:53 Partly Cloudy 96 35.6 70 21.1 43 43 SW 16 26 29.75 1007 10 16 0.00 0.00
5:53 pm 17:53 Mostly Cloudy 97 36.1 69 20.6 40 40 SW 15 24 29.75 1008 10 16 0.00 0.00
6:53 pm 18:53 Partly Cloudy 92 33.3 72 22.2 52 52 SSW 7 11 29.76 1008 10 16 0.00 0.00
7:53 pm 19:53 Mostly Cloudy 89 31.7 73 22.8 59 59 S 6 9 29.77 1008 10 16 0.00 0.00
8:05 pm 20:05 Mostly Cloudy with Thunderstorms 88 31.1 72 22.2 59 59 SW 5 7 29.74 1007 10 16 0.00 0.00
8:38 pm 20:38 Mostly Cloudy with Thunderstorms 82 27.8 70 21.1 67 67 NNW 22 35 29.80 1009 10 16 0.00 0.00
8:53 pm 20:53 Mostly Cloudy with Thunderstorms 80 26.7 70 21.1 71 71 N 18 30 29.85 1011 10 16 0.00 0.00
9:03 pm 21:03 Mostly Cloudy 79 26.1 69 20.6 72 72 N 18 30 29.85 1011 10 16 0.00 0.00
9:53 pm 21:53 Partly Cloudy 74 23.3 65 18.3 74 74 N 8 13 29.90 1013 10 16 0.00 0.00
10:53 pm 22:53 Mostly Cloudy 72 22.2 65 18.3 79 79 N 14 22 29.92 1013 10 16 0.00 0.00
11:53 pm 23:53 Mostly Cloudy 71 21.7 65 18.3 81 81 N 16 26 29.93 1013 10 16 0.00 0.00

Powered by Vaisala Xweather